Welcome to the New NWS' Forecast!
Most changes are behind the scenes, but click here for differences you might notice.

Regional Weather Roundup (RWR)

Issued by National Weather Service (NWS)

                            
370 
ASUS43 KIND 150500
RWRIN 

WEATHER ROUNDUP FOR INDIANA
NATIONAL WEATHER SERVICE INDIANAPOLIS IN
100 AM EDT WED AUG 15 2018

NOTE: "FAIR" INDICATES FEW OR NO CLOUDS BELOW 12,000 FEET WITH NO
SIGNIFICANT WEATHER AND/OR OBSTRUCTIONS TO VISIBILITY.

* - STATION DOES NOT REPORT WEATHER SUCH AS PRECIPITATION OR FOG.

+ - STATION NOT QUALITY CONTROLLED BY THE NATIONAL WEATHER SERVICE.
    USE DATA WITH CAUTION...ESPECIALLY DEWPOINT AND RELATIVE
    HUMIDITY OBSERVATIONS.

INZ001>003-010>013-019-020-150600-
NORTHWEST INDIANA
  
CITY           SKY/WX    TMP DP  RH WIND       PRES   REMARKS
MICHIGAN CITY+ FAIR      70  63  78 CALM      29.97F                  
MONTICELLO +   FAIR      69  67  94 CALM      29.98S                  

$$

LMZ046-743>745-150600-
SOUTHERN LAKE MICHIGAN
  
STATION/POSITION TIME  TEMP    WIND        PRES    WAVE
                       AIR SEA DIR/SP/G            HT
                 (UTC) (F)     (DEG/KT/KT) (MB)    (FT)
BURNS HARBOR     0440   76                 1014.9F
MICHIGAN CITY    0430   78     180/ 10/ 13   N/A
5NW MICH CITY    0450   77 78  210/  8/ 10   N/A     1

$$

INZ004-005-014>016-021>024-150600-
NORTH CENTRAL INDIANA
  
CITY           SKY/WX    TMP DP  RH WIND       PRES   REMARKS
GOSHEN         FAIR      69  68  96 S5        29.99F                  
SOUTH BEND     FAIR      70  66  87 S5        29.98F                  

$$

INZ006>009-017-018-025>027-150600-
NORTHEAST INDIANA
  
CITY           SKY/WX    TMP DP  RH WIND       PRES   REMARKS
ANGOLA *+      FAIR      70  68  94 CALM      30.00S                  
AUBURN +       FAIR     N/A N/A N/A CALM      30.01F                  
FORT WAYNE     MOCLDY    69  68  96 SW3       30.01S                  
KENDALLVILLE + FAIR      69  67  93 CALM      30.01S                  

$$

INZ028-029-035-036-043>045-051>053-150600-
WEST CENTRAL INDIANA
  
CITY           SKY/WX    TMP DP  RH WIND       PRES   REMARKS
CRAWFORDSVL +  FAIR      66  66 100 CALM      29.99S                  
LAFAYETTE      FAIR      70  67  90 CALM      29.98S                  
TERRE HAUTE    FAIR      71  68  90 CALM      29.99R                  

$$

INZ030>032-037>040-046>048-054>057-064-065-150600-
CENTRAL INDIANA
  
CITY           SKY/WX    TMP DP  RH WIND       PRES   REMARKS
ANDERSON +     FAIR      69  67  93 CALM      30.03S                  
GREENWOOD *+   FAIR      71  67  85 CALM      30.02S                  
INDIANAPOLIS   MOCLDY    75  67  76 S7        30.00S                  
-EAGLE CREEK   FAIR      74  66  76 CALM      29.99F                  
KOKOMO +       FAIR      69  68  96 CALM      30.01S FOG              
SHELBYVILLE    FAIR      70  66  87 SE6       30.01S                  

$$

INZ033-034-041-042-049-050-058-059-150600-
EAST CENTRAL INDIANA
  
CITY           SKY/WX    TMP DP  RH WIND       PRES   REMARKS
MUNCIE         FAIR      70  66  87 CALM      30.02S                  
RICHMOND +     FAIR      64  64 100 S3        30.05S FOG              

$$

INZ060-061-067>069-081>083-085>088-150600-
SOUTHWEST INDIANA
  
CITY           SKY/WX    TMP DP  RH WIND       PRES   REMARKS
EVANSVILLE     CLOUDY    76  65  68 SW9       30.01S                  
HUNTINGBURG +  FAIR      75  69  81 S3        30.01S                  

$$

INZ062-063-066-070>080-084-089>092-150600-
SOUTH CENTRAL AND SOUTHEAST INDIANA
  
CITY           SKY/WX    TMP DP  RH WIND       PRES   REMARKS
BLOOMINGTON    FAIR      69  68  96 CALM      30.01F                  
FRENCH LICK *+ FAIR      73  61  64 CALM      30.01F                  
SEYMOUR +      FAIR      70  68  94 CALM      30.01S                  

$$